Location: Bonac
(42.8765°N, 0.9753°E)
Time: 20:30:56
(UTC+00:00)

Cosmos 2251 Rocket - Pass Details

Date: 12 January 2026
Orbit: 762 x 787 km, 74.0° (Epoch: 13 February)

Event Time Altitude Azimuth Distance (km) Brightness Sun altitude
Rises 17:45:23 0° 336° (NNW) 3,258 6.8 -11.1°
Reaches altitude 10° 17:47:48 10° 333° (NNW) 2,323 6.1 -11.6°
Maximum altitude 17:52:58 59° 255° (WSW) 886 4.2 -12.5°
Drops below altitude 10° 17:58:04 10° 176° (S) 2,293 6.1 -13.3°
Sets 18:00:27 0° 173° (S) 3,212 6.9 -13.8°
